Location: Port Stanley
(42.6641°N, 81.2156°W)
Time: 06:47:03
(UTC-04:00)

ISS - Pass Details

Date: 04 July 2019
Orbit: 409 x 418 km, 51.6° (Epoch: 16 July)

Event Time Altitude Azimuth Distance (km) Brightness Sun altitude
Exits shadow 05:06:18 - 267° (W) 1,829 -1.0 -7.6°
Reaches altitude 10° 05:07:14 10° 272° (W) 1,475 -1.4 -7.5°
Maximum altitude 05:10:14 31° 338° (NNW) 740 -2.3 -7.0°
Drops below altitude 10° 05:13:15 10° 43° (NE) 1,477 0.8 -6.6°
Sets 05:15:29 0° 54° (NE) 2,339 2.8 -6.3°
